Tracking 19909 objects as of 22-Oct-2019
HD Live streaming from Space Station
objects crossing your sky now

SL-14 R/B

Track SL-14 R/B now!
10-day predictions
SL-14 R/B is classified as:


NORAD ID: 21423
Int'l Code: 1991-042B
Perigee: 625.4 km
Apogee: 648.9 km
Inclination: 82.5 °
Period: 97.3 minutes
Semi major axis: 7008 km
RCS: 4.7234 m2 (large)
Launch date: June 13, 1991
Source: Commonwealth of Independent States (former USSR) (CIS)
Launch site: PLESETSK MISSILE AND SPACE COMPLEX (PKMTR)

Note: This is a ROCKET BODY
aabbcc
Your satellite tracking list
Your tracking list is empty




NASA's NSSDC Master Catalog

Two Line Element Set (TLE):
1 21423U 91042B   19294.95600696  .00000092  00000-0  91901-5 0  9990
2 21423  82.4945 240.7238 0016778 328.4417  31.5788 14.79773392529280
Source of the keplerian elements: AFSPC